Каспийский

Россия / Республика Калмыкия     45°38′31″N   47°24′24″E
темп.,
°C
ветер,
м/с
пор.,
м/с
влажн.,
%
обл.,
%
осадки,
мм/ч
давл.,
гПа
погр.,
м
13 апреля, вт
вт1300:00+12в4757100 0.0 1023115
03:00+12в455380 0.0 102378
06:00+12всв34570 0.0 102469
09:00+19вюв911300 0.0 1024509
12:00+20вюв912250 0.0 1023798
15:00+20вюв911215 0.0 1023895
18:00+17в71230100 0.0 1022520
21:00+14всв5144071 0.0 1021293
14 апреля, ср
ср1400:00+14в6124298 0.0 1019237
03:00+12в512535 0.0 1018190
06:00+12в612545 0.0 1017233
09:00+18юв8123696 0.0 1017513
12:00+20вюв7931100 0.0 1017584
15:00+18вюв6936100 0.0 1016396
18:00+15ю3550100 0.0 1016168
21:00+15ссв3442100 0.0 101557
15 апреля, чт
чт1500:00+15зсз5739100 0.0 1014140
03:00+14ссз3739100 0.0 1014125
06:00+15с4642100 0.0 1014127
09:00+19с443245 0.0 1014387
12:00+23с532874 0.0 10132504
15:00+22с542961 0.1 10132292
18:00+21с34335 0.0 101398
21:00
16 апреля, пт
пт1600:00+15ссз44480 0.0 101456
03:00+14ссз4558100 0.0 101578
06:00+13ссз35625 0.0 1016120
09:00+19ссз45395 0.0 10171025
12:00+23ссз452997 0.0 10161907
15:00+23ссв4327100 0.0 10152333
18:00+21всв223399 0.0 101630
21:00+16ююз33435 0.0 101637
17 апреля, сб
сб1700:00+15зюз334981 0.0 101737
03:00+14з3351100 0.0 101720
06:00+14зюз1154100 0.0 101711
09:00+19ююз2239100 0.0 1018590
12:00+20з4337100 0.0 10171723
15:00+17ссз9858100 0.0 1019973
18:00+15сз5664100 0.1 1019597
21:00+14сз3662100 0.1 1019180